TimeMST,TemperatureF,Dew PointF,Humidity,Sea Level PressureIn,VisibilityMPH,Wind Direction,Wind SpeedMPH,Gust SpeedMPH,PrecipitationIn,Events,Conditions,WindDirDegrees,DateUTC
4:40 AM,65,64,95,29.91,6,SW,2.2,,,,,220,2012-12-08 11:40:00
5:55 AM,69.8,68.0,94,29.88,8.0,Calm,Calm,-,N/A,,Scattered Clouds,0,2012-12-08 12:55:00
6:40 AM,69.8,68.0,94,29.90,8.0,Calm,Calm,-,N/A,,Scattered Clouds,0,2012-12-08 13:40:00
7:40 AM,65,64,95,29.94,10,SW,2.2,,,,Haze,220,2012-12-08 14:40:00
7:41 AM,69.8,66.2,88,29.88,8.0,Calm,Calm,-,N/A,,Mostly Cloudy,0,2012-12-08 14:41:00
8:42 AM,71.6,64.4,78,29.93,8.0,Calm,Calm,-,N/A,,Scattered Clouds,0,2012-12-08 15:42:00
9:41 AM,77.0,66.2,69,29.93,8.0,Calm,Calm,-,N/A,,Scattered Clouds,0,2012-12-08 16:41:00
10:40 AM,88,57,25,29.91,10,SSW,2.2,,,,Haze,200,2012-12-08 17:40:00
10:42 AM,80.6,68.0,65,29.91,8.0,Calm,Calm,-,N/A,,Mostly Cloudy,0,2012-12-08 17:42:00
11:40 AM,80.6,68.0,65,29.91,8.0,Calm,Calm,-,N/A,,Mostly Cloudy,0,2012-12-08 18:40:00
12:40 PM,82.4,69.8,66,29.87,8.0,Calm,Calm,-,N/A,,Mostly Cloudy,0,2012-12-08 19:40:00
1:40 PM,82.4,69.8,66,29.83,8.0,Calm,Calm,-,N/A,,Mostly Cloudy,0,2012-12-08 20:40:00
2:40 PM,82.4,69.8,66,29.86,8.0,West,9.2,-,N/A,,Mostly Cloudy,260,2012-12-08 21:40:00
3:40 PM,80.6,69.8,70,29.86,10.0,SSW,5.8,-,N/A,,Overcast,210,2012-12-08 22:40:00
4:40 PM,80.6,69.8,70,29.84,10.0,Calm,Calm,-,N/A,,Overcast,0,2012-12-08 23:40:00
5:42 PM,77.0,69.8,78,29.87,10.0,Calm,Calm,-,N/A,,Overcast,0,2012-12-09 00:42:00
6:41 PM,75.2,68.0,78,29.88,10.0,Calm,Calm,-,N/A,,Overcast,0,2012-12-09 01:41:00
7:40 PM,73,67,78,29.99,6,Calm,Calm,,,,,,2012-12-09 02:40:00
7:40 PM,75.2,68.0,78,29.88,10.0,Calm,Calm,-,N/A,,Overcast,0,2012-12-09 02:40:00
8:40 PM,75.2,68.0,78,29.91,10.0,Calm,Calm,-,N/A,,Overcast,0,2012-12-09 03:40:00
9:40 PM,73.4,68.0,83,29.93,10.0,Calm,Calm,-,N/A,,Overcast,0,2012-12-09 04:40:00
10:45 PM,70,68,91,30.01,6,Calm,Calm,,,,,,2012-12-09 05:45:00